Time,TemperatureF,DewpointF,PressureIn,WindDirection,WindDirectionDegrees,WindSpeedMPH,WindSpeedGustMPH,Humidity,HourlyPrecipIn,Conditions,Clouds,dailyrainin,SolarRadiationWatts/m^2,SoftwareType,DateUTC
2013-10-31 00:00:00,56.3,54.3,30.21,SSW,212,1.0,1.0,93,0.00,,,0.00,0,Wunderground v.1.15,2013-10-31 04:00:00,
2013-10-31 00:05:00,56.3,54.3,30.20,SSW,211,1.0,2.0,93,0.00,,,0.00,0,Wunderground v.1.15,2013-10-31 04:05:00,
2013-10-31 00:10:00,56.3,54.3,30.20,West,278,2.0,3.0,93,0.00,,,0.00,0,Wunderground v.1.15,2013-10-31 04:10:00,
2013-10-31 00:15:00,56.2,54.2,30.19,West,281,2.0,3.0,93,0.00,,,0.00,0,Wunderground v.1.15,2013-10-31 04:15:00,
2013-10-31 00:20:00,56.2,54.2,30.19,West,275,0.0,0.0,93,0.00,,,0.00,0,Wunderground v.1.15,2013-10-31 04:20:00,
2013-10-31 00:25:00,56.0,54.0,30.19,West,279,0.0,0.0,93,0.00,,,0.00,0,Wunderground v.1.15,2013-10-31 04:25:00,
2013-10-31 00:30:00,55.9,53.9,30.19,West,281,0.0,0.0,93,0.00,,,0.00,0,Wunderground v.1.15,2013-10-31 04:30:00,
2013-10-31 00:35:00,55.8,53.8,30.19,West,279,0.0,0.0,93,0.00,,,0.00,0,Wunderground v.1.15,2013-10-31 04:35:00,
2013-10-31 00:40:00,55.6,53.6,30.18,West,279,0.0,0.0,93,0.00,,,0.00,0,Wunderground v.1.15,2013-10-31 04:40:00,
2013-10-31 00:45:00,55.3,53.0,30.18,West,279,0.0,0.0,92,0.00,,,0.00,0,Wunderground v.1.15,2013-10-31 04:45:00,
2013-10-31 00:50:00,55.0,52.7,30.17,West,277,0.0,0.0,92,0.00,,,0.00,0,Wunderground v.1.15,2013-10-31 04:50:00,
2013-10-31 00:55:00,54.6,52.6,30.18,West,278,1.0,1.0,93,0.00,,,0.00,0,Wunderground v.1.15,2013-10-31 04:55:00,
2013-10-31 01:00:00,54.1,52.1,30.18,West,278,1.0,1.0,93,0.00,,,0.00,0,Wunderground v.1.15,2013-10-31 05:00:00,
2013-10-31 01:05:00,53.8,52.1,30.18,West,280,1.0,1.0,94,0.00,,,0.00,0,Wunderground v.1.15,2013-10-31 05:05:00,
2013-10-31 01:10:00,53.5,51.8,30.17,West,278,0.0,0.0,94,0.00,,,0.00,0,Wunderground v.1.15,2013-10-31 05:10:00,
2013-10-31 01:15:00,53.0,51.3,30.17,West,281,0.0,0.0,94,0.00,,,0.00,0,Wunderground v.1.15,2013-10-31 05:15:00,
2013-10-31 01:20:00,52.7,51.0,30.18,West,281,0.0,0.0,94,0.00,,,0.00,0,Wunderground v.1.15,2013-10-31 05:20:00,
2013-10-31 01:30:00,52.3,50.9,30.18,West,280,0.0,0.0,95,0.00,,,0.00,0,Wunderground v.1.15,2013-10-31 05:30:00,
2013-10-31 01:35:00,52.1,50.7,30.19,West,278,0.0,0.0,95,0.00,,,0.00,0,Wunderground v.1.15,2013-10-31 05:35:00,
2013-10-31 01:40:00,51.9,50.8,30.19,West,280,0.0,0.0,96,0.00,,,0.00,0,Wunderground v.1.15,2013-10-31 05:40:00,
2013-10-31 01:50:00,51.7,50.6,30.19,West,279,0.0,0.0,96,0.00,,,0.00,0,Wunderground v.1.15,2013-10-31 05:50:00,
2013-10-31 01:55:00,51.6,50.5,30.19,West,281,0.0,0.0,96,0.00,,,0.00,0,Wunderground v.1.15,2013-10-31 05:55:00,
2013-10-31 02:00:00,51.6,50.8,30.18,West,280,0.0,1.0,97,0.00,,,0.00,0,Wunderground v.1.15,2013-10-31 06:00:00,
2013-10-31 02:05:00,51.6,50.8,30.18,West,277,1.0,1.0,97,0.00,,,0.00,0,Wunderground v.1.15,2013-10-31 06:05:00,
2013-10-31 02:10:00,51.7,50.9,30.19,West,277,1.0,1.0,97,0.00,,,0.00,0,Wunderground v.1.15,2013-10-31 06:10:00,
2013-10-31 02:15:00,51.8,51.3,30.19,West,279,0.0,1.0,98,0.00,,,0.00,0,Wunderground v.1.15,2013-10-31 06:15:00,
2013-10-31 02:20:00,51.9,51.4,30.19,West,280,0.0,0.0,98,0.00,,,0.00,0,Wunderground v.1.15,2013-10-31 06:20:00,
2013-10-31 02:25:00,52.0,51.5,30.18,West,281,0.0,2.0,98,0.00,,,0.00,0,Wunderground v.1.15,2013-10-31 06:25:00,
2013-10-31 02:30:00,52.1,51.6,30.18,West,280,1.0,1.0,98,0.00,,,0.00,0,Wunderground v.1.15,2013-10-31 06:30:00,
2013-10-31 02:35:00,52.3,51.8,30.17,West,278,1.0,1.0,98,0.00,,,0.00,0,Wunderground v.1.15,2013-10-31 06:35:00,
2013-10-31 02:40:00,52.3,51.8,30.17,West,278,0.0,0.0,98,0.00,,,0.00,0,Wunderground v.1.15,2013-10-31 06:40:00,
2013-10-31 02:45:00,52.4,51.9,30.17,West,280,1.0,1.0,98,0.00,,,0.00,0,Wunderground v.1.15,2013-10-31 06:45:00,
2013-10-31 02:50:00,52.3,51.8,30.17,West,277,1.0,1.0,98,0.00,,,0.00,0,Wunderground v.1.15,2013-10-31 06:50:00,
2013-10-31 02:55:00,52.3,51.8,30.17,West,279,2.0,2.0,98,0.00,,,0.00,0,Wunderground v.1.15,2013-10-31 06:55:00,
2013-10-31 03:00:00,52.2,51.7,30.17,West,276,1.0,1.0,98,0.00,,,0.00,0,Wunderground v.1.15,2013-10-31 07:00:00,
2013-10-31 03:05:00,52.2,51.7,30.17,West,277,0.0,1.0,98,0.00,,,0.00,0,Wunderground v.1.15,2013-10-31 07:05:00,
2013-10-31 03:10:00,52.1,51.6,30.16,West,279,0.0,0.0,98,0.00,,,0.00,0,Wunderground v.1.15,2013-10-31 07:10:00,
2013-10-31 03:15:00,52.1,51.6,30.16,West,277,0.0,0.0,98,0.00,,,0.00,0,Wunderground v.1.15,2013-10-31 07:15:00,
2013-10-31 03:20:00,52.1,51.6,30.16,West,277,0.0,2.0,98,0.00,,,0.00,0,Wunderground v.1.15,2013-10-31 07:20:00,
2013-10-31 03:25:00,52.1,51.6,30.16,West,277,1.0,2.0,98,0.00,,,0.00,0,Wunderground v.1.15,2013-10-31 07:25:00,
2013-10-31 03:30:00,52.2,51.7,30.17,West,278,0.0,0.0,98,0.00,,,0.00,0,Wunderground v.1.15,2013-10-31 07:30:00,
2013-10-31 03:35:00,52.3,51.8,30.16,West,278,0.0,0.0,98,0.00,,,0.00,0,Wunderground v.1.15,2013-10-31 07:35:00,
2013-10-31 03:40:00,52.3,51.8,30.16,West,277,0.0,0.0,98,0.00,,,0.00,0,Wunderground v.1.15,2013-10-31 07:40:00,
2013-10-31 03:45:00,52.4,52.1,30.15,West,279,0.0,0.0,99,0.00,,,0.00,0,Wunderground v.1.15,2013-10-31 07:45:00,
2013-10-31 03:50:00,52.5,52.0,30.15,West,277,0.0,0.0,98,0.00,,,0.00,0,Wunderground v.1.15,2013-10-31 07:50:00,
2013-10-31 03:55:00,52.5,52.0,30.15,West,278,0.0,1.0,98,0.00,,,0.00,0,Wunderground v.1.15,2013-10-31 07:55:00,
2013-10-31 04:00:00,52.7,52.4,30.15,West,277,0.0,0.0,99,0.00,,,0.00,0,Wunderground v.1.15,2013-10-31 08:00:00,
2013-10-31 04:05:00,52.8,52.5,30.15,West,278,0.0,0.0,99,0.00,,,0.00,0,Wunderground v.1.15,2013-10-31 08:05:00,
2013-10-31 04:10:00,52.8,52.5,30.15,West,278,0.0,0.0,99,0.00,,,0.00,0,Wunderground v.1.15,2013-10-31 08:10:00,
2013-10-31 04:15:00,52.9,52.6,30.15,West,278,0.0,0.0,99,0.00,,,0.00,0,Wunderground v.1.15,2013-10-31 08:15:00,
2013-10-31 04:20:00,52.9,52.6,30.15,West,277,0.0,0.0,99,0.00,,,0.00,0,Wunderground v.1.15,2013-10-31 08:20:00,
2013-10-31 04:25:00,52.9,52.6,30.14,West,277,0.0,0.0,99,0.00,,,0.00,0,Wunderground v.1.15,2013-10-31 08:25:00,
2013-10-31 04:30:00,53.0,52.7,30.14,West,277,0.0,0.0,99,0.00,,,0.00,0,Wunderground v.1.15,2013-10-31 08:30:00,
2013-10-31 04:40:00,53.0,52.5,30.13,West,277,0.0,0.0,98,0.00,,,0.00,0,Wunderground v.1.15,2013-10-31 08:40:00,
2013-10-31 04:45:00,53.0,52.5,30.13,West,275,0.0,0.0,98,0.00,,,0.00,0,Wunderground v.1.15,2013-10-31 08:45:00,
2013-10-31 04:50:00,53.0,52.5,30.13,North,360,0.0,0.0,98,0.00,,,0.00,0,Wunderground v.1.15,2013-10-31 08:50:00,
2013-10-31 04:55:00,52.9,52.4,30.13,West,276,0.0,0.0,98,0.00,,,0.00,0,Wunderground v.1.15,2013-10-31 08:55:00,
2013-10-31 05:00:00,53.0,52.5,30.13,West,278,0.0,0.0,98,0.00,,,0.00,0,Wunderground v.1.15,2013-10-31 09:00:00,
2013-10-31 05:05:00,53.0,52.5,30.12,West,275,0.0,0.0,98,0.00,,,0.00,0,Wunderground v.1.15,2013-10-31 09:05:00,
2013-10-31 05:10:00,53.0,52.5,30.13,West,277,0.0,0.0,98,0.00,,,0.00,0,Wunderground v.1.15,2013-10-31 09:10:00,
2013-10-31 05:15:00,53.0,52.5,30.13,West,277,0.0,0.0,98,0.00,,,0.00,0,Wunderground v.1.15,2013-10-31 09:15:00,
2013-10-31 05:20:00,53.0,52.5,30.13,West,276,0.0,0.0,98,0.00,,,0.00,0,Wunderground v.1.15,2013-10-31 09:20:00,
2013-10-31 05:25:00,53.0,52.5,30.12,West,277,0.0,0.0,98,0.00,,,0.00,0,Wunderground v.1.15,2013-10-31 09:25:00,
2013-10-31 05:30:00,53.0,52.5,30.12,West,278,0.0,0.0,98,0.00,,,0.00,0,Wunderground v.1.15,2013-10-31 09:30:00,
2013-10-31 05:35:00,53.0,52.5,30.13,West,276,0.0,0.0,98,0.00,,,0.00,0,Wunderground v.1.15,2013-10-31 09:35:00,
2013-10-31 05:40:00,53.0,52.5,30.13,West,276,0.0,0.0,98,0.00,,,0.00,0,Wunderground v.1.15,2013-10-31 09:40:00,
2013-10-31 05:45:00,53.0,52.5,30.13,West,277,0.0,0.0,98,0.00,,,0.00,0,Wunderground v.1.15,2013-10-31 09:45:00,
2013-10-31 05:50:00,53.0,52.5,30.13,West,276,0.0,0.0,98,0.00,,,0.00,0,Wunderground v.1.15,2013-10-31 09:50:00,
2013-10-31 05:55:00,53.0,52.5,30.13,West,276,0.0,0.0,98,0.00,,,0.00,0,Wunderground v.1.15,2013-10-31 09:55:00,
2013-10-31 06:00:00,53.0,52.5,30.13,West,276,0.0,0.0,98,0.00,,,0.00,0,Wunderground v.1.15,2013-10-31 10:00:00,
2013-10-31 06:05:00,53.0,52.5,30.13,West,275,0.0,0.0,98,0.00,,,0.00,0,Wunderground v.1.15,2013-10-31 10:05:00,
2013-10-31 06:10:00,53.0,52.5,30.12,West,278,0.0,0.0,98,0.00,,,0.00,0,Wunderground v.1.15,2013-10-31 10:10:00,
2013-10-31 06:15:00,53.0,52.5,30.12,West,275,0.0,0.0,98,0.00,,,0.00,0,Wunderground v.1.15,2013-10-31 10:15:00,
2013-10-31 06:20:00,53.0,52.5,30.13,West,278,0.0,0.0,98,0.00,,,0.00,0,Wunderground v.1.15,2013-10-31 10:20:00,
2013-10-31 06:25:00,52.9,52.4,30.13,West,275,0.0,0.0,98,0.00,,,0.00,0,Wunderground v.1.15,2013-10-31 10:25:00,
2013-10-31 06:30:00,52.9,52.4,30.13,West,276,0.0,0.0,98,0.00,,,0.00,0,Wunderground v.1.15,2013-10-31 10:30:00,
2013-10-31 06:35:00,52.9,52.4,30.13,West,279,0.0,0.0,98,0.00,,,0.00,0,Wunderground v.1.15,2013-10-31 10:35:00,
2013-10-31 06:40:00,52.9,52.4,30.12,West,277,0.0,0.0,98,0.00,,,0.00,0,Wunderground v.1.15,2013-10-31 10:40:00,
2013-10-31 06:45:00,52.9,52.4,30.12,West,275,0.0,0.0,98,0.00,,,0.00,0,Wunderground v.1.15,2013-10-31 10:45:00,
2013-10-31 06:50:00,52.9,52.4,30.12,West,276,0.0,0.0,98,0.00,,,0.00,0,Wunderground v.1.15,2013-10-31 10:50:00,
2013-10-31 06:55:00,52.9,52.4,30.12,West,278,0.0,2.0,98,0.00,,,0.00,0,Wunderground v.1.15,2013-10-31 10:55:00,
2013-10-31 07:00:00,52.9,52.4,30.12,West,274,1.0,2.0,98,0.00,,,0.00,0,Wunderground v.1.15,2013-10-31 11:00:00,
2013-10-31 07:05:00,52.9,52.6,30.12,West,279,2.0,2.0,99,0.00,,,0.00,0,Wunderground v.1.15,2013-10-31 11:05:00,
2013-10-31 07:10:00,53.0,52.5,30.11,West,277,0.0,0.0,98,0.00,,,0.00,0,Wunderground v.1.15,2013-10-31 11:10:00,
2013-10-31 07:15:00,53.0,52.7,30.11,West,277,0.0,0.0,99,0.00,,,0.00,0,Wunderground v.1.15,2013-10-31 11:15:00,
2013-10-31 07:20:00,53.0,52.7,30.11,West,280,0.0,0.0,99,0.00,,,0.00,0,Wunderground v.1.15,2013-10-31 11:20:00,
2013-10-31 07:25:00,53.0,52.7,30.11,West,276,0.0,0.0,99,0.00,,,0.00,0,Wunderground v.1.15,2013-10-31 11:25:00,
2013-10-31 07:30:00,53.0,52.7,30.11,West,279,0.0,0.0,99,0.00,,,0.00,0,Wunderground v.1.15,2013-10-31 11:30:00,
2013-10-31 07:35:00,53.0,52.7,30.10,West,277,0.0,0.0,99,0.00,,,0.00,0,Wunderground v.1.15,2013-10-31 11:35:00,
2013-10-31 07:40:00,53.0,52.7,30.10,West,276,0.0,0.0,99,0.00,,,0.00,0,Wunderground v.1.15,2013-10-31 11:40:00,
2013-10-31 07:45:00,53.0,52.7,30.10,West,276,0.0,0.0,99,0.00,,,0.00,0,Wunderground v.1.15,2013-10-31 11:45:00,
2013-10-31 07:50:00,53.1,52.8,30.10,West,277,0.0,0.0,99,0.00,,,0.00,0,Wunderground v.1.15,2013-10-31 11:50:00,
2013-10-31 07:55:00,53.1,52.8,30.10,West,279,0.0,0.0,99,0.00,,,0.00,0,Wunderground v.1.15,2013-10-31 11:55:00,
2013-10-31 08:00:00,53.2,52.9,30.10,West,276,0.0,0.0,99,0.00,,,0.00,5,Wunderground v.1.15,2013-10-31 12:00:00,
2013-10-31 08:10:00,53.2,52.9,30.11,West,279,0.0,0.0,99,0.00,,,0.00,9,Wunderground v.1.15,2013-10-31 12:10:00,
2013-10-31 08:15:00,53.2,52.9,30.11,West,278,0.0,0.0,99,0.00,,,0.00,7,Wunderground v.1.15,2013-10-31 12:15:00,
2013-10-31 08:20:00,53.3,53.0,30.11,West,278,0.0,0.0,99,0.00,,,0.00,9,Wunderground v.1.15,2013-10-31 12:20:00,
2013-10-31 08:25:00,53.3,53.0,30.11,West,279,0.0,0.0,99,0.00,,,0.00,14,Wunderground v.1.15,2013-10-31 12:25:00,
2013-10-31 08:30:00,53.4,53.1,30.11,North,360,0.0,0.0,99,0.00,,,0.00,18,Wunderground v.1.15,2013-10-31 12:30:00,
2013-10-31 08:35:00,53.4,53.1,30.11,North,360,0.0,0.0,99,0.00,,,0.00,19,Wunderground v.1.15,2013-10-31 12:35:00,
2013-10-31 08:45:00,53.6,53.3,30.11,West,275,0.0,1.0,99,0.00,,,0.00,26,Wunderground v.1.15,2013-10-31 12:45:00,
2013-10-31 08:50:00,53.7,53.4,30.11,West,277,0.0,0.0,99,0.00,,,0.00,25,Wunderground v.1.15,2013-10-31 12:50:00,
2013-10-31 08:55:00,53.8,53.5,30.11,West,275,0.0,0.0,99,0.00,,,0.00,28,Wunderground v.1.15,2013-10-31 12:55:00,
2013-10-31 09:00:00,53.9,53.6,30.11,North,360,0.0,0.0,99,0.00,,,0.00,35,Wunderground v.1.15,2013-10-31 13:00:00,
2013-10-31 09:05:00,54.0,53.7,30.11,West,277,0.0,0.0,99,0.00,,,0.00,39,Wunderground v.1.15,2013-10-31 13:05:00,
2013-10-31 09:10:00,54.1,53.8,30.11,West,277,0.0,0.0,99,0.00,,,0.00,42,Wunderground v.1.15,2013-10-31 13:10:00,
2013-10-31 09:20:00,54.4,54.1,30.10,West,277,0.0,0.0,99,0.00,,,0.00,65,Wunderground v.1.15,2013-10-31 13:20:00,
2013-10-31 09:25:00,54.5,54.2,30.10,West,279,0.0,1.0,99,0.00,,,0.00,74,Wunderground v.1.15,2013-10-31 13:25:00,
2013-10-31 09:30:00,54.7,54.4,30.10,West,277,0.0,0.0,99,0.00,,,0.00,74,Wunderground v.1.15,2013-10-31 13:30:00,
2013-10-31 09:35:00,55.0,54.7,30.09,West,278,0.0,0.0,99,0.00,,,0.00,88,Wunderground v.1.15,2013-10-31 13:35:00,
2013-10-31 09:40:00,55.2,54.9,30.09,SSW,209,0.0,2.0,99,0.00,,,0.00,120,Wunderground v.1.15,2013-10-31 13:40:00,
2013-10-31 09:45:00,55.4,55.1,30.09,SSW,207,1.0,2.0,99,0.00,,,0.00,130,Wunderground v.1.15,2013-10-31 13:45:00,
2013-10-31 09:50:00,55.5,54.9,30.08,North,360,1.0,1.0,98,0.00,,,0.00,127,Wunderground v.1.15,2013-10-31 13:50:00,
2013-10-31 09:55:00,55.9,55.3,30.08,SSW,211,0.0,1.0,98,0.00,,,0.00,139,Wunderground v.1.15,2013-10-31 13:55:00,
2013-10-31 10:00:00,56.3,55.7,30.08,SSW,200,1.0,2.0,98,0.00,,,0.00,120,Wunderground v.1.15,2013-10-31 14:00:00,
2013-10-31 10:05:00,56.5,55.9,30.08,South,182,2.0,3.0,98,0.00,,,0.00,132,Wunderground v.1.15,2013-10-31 14:05:00,
2013-10-31 10:10:00,56.7,55.9,30.07,South,179,2.0,2.0,97,0.00,,,0.00,149,Wunderground v.1.15,2013-10-31 14:10:00,
2013-10-31 10:15:00,56.9,56.1,30.08,SSW,202,1.0,2.0,97,0.00,,,0.00,162,Wunderground v.1.15,2013-10-31 14:15:00,
2013-10-31 10:20:00,57.2,56.1,30.07,North,360,1.0,1.0,96,0.00,,,0.00,116,Wunderground v.1.15,2013-10-31 14:20:00,
2013-10-31 10:25:00,57.5,56.1,30.07,North,360,0.0,1.0,95,0.00,,,0.00,149,Wunderground v.1.15,2013-10-31 14:25:00,
2013-10-31 10:30:00,57.8,56.1,30.06,SSW,202,0.0,0.0,94,0.00,,,0.00,158,Wunderground v.1.15,2013-10-31 14:30:00,
2013-10-31 10:35:00,58.0,56.0,30.06,SSW,200,0.0,0.0,93,0.00,,,0.00,142,Wunderground v.1.15,2013-10-31 14:35:00,
2013-10-31 10:40:00,58.3,56.3,30.06,SSW,200,0.0,0.0,93,0.00,,,0.00,105,Wunderground v.1.15,2013-10-31 14:40:00,
2013-10-31 10:45:00,58.6,56.6,30.06,SSW,203,0.0,0.0,93,0.00,,,0.00,104,Wunderground v.1.15,2013-10-31 14:45:00,
2013-10-31 10:50:00,58.8,56.5,30.06,SSW,202,0.0,0.0,92,0.00,,,0.00,105,Wunderground v.1.15,2013-10-31 14:50:00,
2013-10-31 10:55:00,59.0,56.7,30.06,SSW,202,0.0,0.0,92,0.00,,,0.00,86,Wunderground v.1.15,2013-10-31 14:55:00,
2013-10-31 11:00:00,59.2,56.9,30.05,North,360,0.0,0.0,92,0.00,,,0.00,81,Wunderground v.1.15,2013-10-31 15:00:00,
2013-10-31 11:10:00,59.3,57.0,30.05,North,360,0.0,0.0,92,0.00,,,0.00,120,Wunderground v.1.15,2013-10-31 15:10:00,
2013-10-31 11:20:00,59.3,56.7,30.04,SSW,193,0.0,0.0,91,0.00,,,0.00,86,Wunderground v.1.15,2013-10-31 15:20:00,
2013-10-31 11:25:00,59.4,57.1,30.04,SSW,194,0.0,0.0,92,0.00,,,0.00,93,Wunderground v.1.15,2013-10-31 15:25:00,
2013-10-31 11:30:00,59.5,57.2,30.04,SSW,192,0.0,0.0,92,0.00,,,0.00,104,Wunderground v.1.15,2013-10-31 15:30:00,
2013-10-31 11:35:00,59.6,57.3,30.03,South,189,0.0,0.0,92,0.00,,,0.00,123,Wunderground v.1.15,2013-10-31 15:35:00,
2013-10-31 11:40:00,59.6,57.0,30.03,South,190,0.0,0.0,91,0.00,,,0.00,128,Wunderground v.1.15,2013-10-31 15:40:00,
2013-10-31 11:45:00,59.7,56.8,30.03,SSW,193,0.0,0.0,90,0.00,,,0.00,132,Wunderground v.1.15,2013-10-31 15:45:00,
2013-10-31 11:50:00,59.8,56.9,30.03,SSW,193,0.0,0.0,90,0.00,,,0.00,132,Wunderground v.1.15,2013-10-31 15:50:00,
2013-10-31 11:55:00,59.9,57.0,30.02,SSE,155,0.0,0.0,90,0.00,,,0.00,134,Wunderground v.1.15,2013-10-31 15:55:00,
2013-10-31 12:00:00,60.0,57.1,30.02,SSE,151,0.0,0.0,90,0.00,,,0.00,135,Wunderground v.1.15,2013-10-31 16:00:00,
2013-10-31 12:10:00,60.2,56.9,30.01,North,360,0.0,0.0,89,0.00,,,0.00,148,Wunderground v.1.15,2013-10-31 16:10:00,
2013-10-31 12:20:00,60.7,57.4,30.01,West,281,1.0,1.0,89,0.00,,,0.00,127,Wunderground v.1.15,2013-10-31 16:20:00,
2013-10-31 12:25:00,61.0,57.7,30.00,West,279,0.0,1.0,89,0.00,,,0.00,107,Wunderground v.1.15,2013-10-31 16:25:00,
2013-10-31 12:30:00,61.1,57.5,30.00,ENE,62,0.0,0.0,88,0.00,,,0.00,86,Wunderground v.1.15,2013-10-31 16:30:00,
2013-10-31 12:35:00,61.1,57.8,30.01,ENE,60,1.0,2.0,89,0.00,,,0.00,74,Wunderground v.1.15,2013-10-31 16:35:00,
2013-10-31 12:40:00,61.0,57.7,30.00,ENE,62,1.0,1.0,89,0.00,,,0.00,97,Wunderground v.1.15,2013-10-31 16:40:00,
2013-10-31 12:45:00,60.9,57.9,30.00,ENE,59,1.0,1.0,90,0.00,,,0.00,118,Wunderground v.1.15,2013-10-31 16:45:00,
2013-10-31 12:50:00,61.0,58.0,29.99,North,9,1.0,1.0,90,0.00,,,0.00,120,Wunderground v.1.15,2013-10-31 16:50:00,
2013-10-31 12:55:00,61.1,58.1,29.99,North,9,1.0,1.0,90,0.00,,,0.00,116,Wunderground v.1.15,2013-10-31 16:55:00,
2013-10-31 13:00:00,61.2,58.2,29.99,North,10,1.0,1.0,90,0.00,,,0.00,127,Wunderground v.1.15,2013-10-31 17:00:00,
2013-10-31 13:10:00,61.4,58.4,29.98,ENE,69,1.0,2.0,90,0.00,,,0.00,113,Wunderground v.1.15,2013-10-31 17:10:00,
2013-10-31 13:15:00,61.4,58.1,29.97,ENE,69,2.0,2.0,89,0.00,,,0.00,109,Wunderground v.1.15,2013-10-31 17:15:00,
2013-10-31 13:20:00,61.3,58.0,29.97,ENE,61,2.0,2.0,89,0.00,,,0.00,118,Wunderground v.1.15,2013-10-31 17:20:00,
2013-10-31 13:25:00,61.3,58.0,29.96,ENE,68,1.0,2.0,89,0.00,,,0.00,135,Wunderground v.1.15,2013-10-31 17:25:00,
2013-10-31 13:30:00,61.4,58.1,29.96,ENE,66,1.0,1.0,89,0.00,,,0.00,176,Wunderground v.1.15,2013-10-31 17:30:00,
2013-10-31 13:35:00,61.5,58.2,29.96,ENE,67,0.0,1.0,89,0.00,,,0.00,167,Wunderground v.1.15,2013-10-31 17:35:00,
2013-10-31 13:40:00,61.8,58.2,29.95,ENE,65,0.0,0.0,88,0.00,,,0.00,153,Wunderground v.1.15,2013-10-31 17:40:00,
2013-10-31 13:45:00,61.9,58.3,29.95,ENE,65,0.0,0.0,88,0.00,,,0.00,120,Wunderground v.1.15,2013-10-31 17:45:00,
2013-10-31 13:50:00,62.0,58.1,29.95,ENE,65,0.0,0.0,87,0.00,,,0.00,104,Wunderground v.1.15,2013-10-31 17:50:00,
2013-10-31 13:55:00,62.0,58.4,29.94,ENE,67,0.0,0.0,88,0.00,,,0.00,125,Wunderground v.1.15,2013-10-31 17:55:00,
2013-10-31 14:00:00,62.1,58.5,29.94,ENE,66,0.0,0.0,88,0.00,,,0.00,123,Wunderground v.1.15,2013-10-31 18:00:00,
2013-10-31 14:05:00,62.1,58.5,29.93,ENE,63,0.0,0.0,88,0.00,,,0.00,109,Wunderground v.1.15,2013-10-31 18:05:00,
2013-10-31 14:10:00,62.2,58.6,29.93,ENE,65,0.0,0.0,88,0.00,,,0.00,120,Wunderground v.1.15,2013-10-31 18:10:00,
2013-10-31 14:15:00,62.3,58.7,29.93,ENE,63,1.0,1.0,88,0.00,,,0.00,121,Wunderground v.1.15,2013-10-31 18:15:00,
2013-10-31 14:20:00,62.4,58.8,29.92,ENE,63,1.0,1.0,88,0.00,,,0.00,120,Wunderground v.1.15,2013-10-31 18:20:00,
2013-10-31 14:25:00,62.4,58.5,29.91,ENE,65,1.0,1.0,87,0.00,,,0.00,125,Wunderground v.1.15,2013-10-31 18:25:00,
2013-10-31 14:30:00,62.4,58.8,29.89,ENE,59,2.0,5.0,88,0.00,,,0.00,125,Wunderground v.1.15,2013-10-31 18:30:00,
2013-10-31 14:35:00,62.5,58.6,29.90,North,10,2.0,5.0,87,0.00,,,0.00,121,Wunderground v.1.15,2013-10-31 18:35:00,
2013-10-31 14:40:00,62.6,58.7,29.91,NE,38,2.0,3.0,87,0.00,,,0.00,118,Wunderground v.1.15,2013-10-31 18:40:00,
2013-10-31 14:45:00,62.7,58.8,29.90,ENE,61,2.0,3.0,87,0.00,,,0.00,98,Wunderground v.1.15,2013-10-31 18:45:00,
2013-10-31 14:50:00,62.7,58.8,29.90,ENE,60,1.0,2.0,87,0.00,,,0.00,90,Wunderground v.1.15,2013-10-31 18:50:00,
2013-10-31 14:55:00,62.7,58.8,29.89,ENE,62,1.0,2.0,87,0.00,,,0.00,88,Wunderground v.1.15,2013-10-31 18:55:00,
2013-10-31 15:00:00,62.7,58.8,29.90,ENE,58,1.0,1.0,87,0.00,,,0.00,83,Wunderground v.1.15,2013-10-31 19:00:00,
2013-10-31 15:05:00,62.8,58.9,29.89,ENE,60,0.0,1.0,87,0.00,,,0.00,90,Wunderground v.1.15,2013-10-31 19:05:00,
2013-10-31 15:10:00,62.8,58.9,29.89,ENE,59,0.0,0.0,87,0.00,,,0.00,81,Wunderground v.1.15,2013-10-31 19:10:00,
2013-10-31 15:15:00,62.9,59.0,29.89,East,98,0.0,0.0,87,0.00,,,0.00,70,Wunderground v.1.15,2013-10-31 19:15:00,
2013-10-31 15:20:00,62.9,59.0,29.89,East,96,0.0,0.0,87,0.00,,,0.00,67,Wunderground v.1.15,2013-10-31 19:20:00,
2013-10-31 15:25:00,62.8,58.9,29.89,East,95,0.0,0.0,87,0.00,,,0.00,58,Wunderground v.1.15,2013-10-31 19:25:00,
2013-10-31 15:30:00,62.7,58.8,29.89,East,98,1.0,2.0,87,0.00,,,0.00,54,Wunderground v.1.15,2013-10-31 19:30:00,
2013-10-31 15:35:00,62.7,58.5,29.89,ENE,78,1.0,2.0,86,0.00,,,0.00,54,Wunderground v.1.15,2013-10-31 19:35:00,
2013-10-31 15:40:00,62.6,58.7,29.89,East,79,1.0,1.0,87,0.00,,,0.00,54,Wunderground v.1.15,2013-10-31 19:40:00,
2013-10-31 15:45:00,62.6,58.7,29.89,NE,34,1.0,3.0,87,0.00,,,0.00,49,Wunderground v.1.15,2013-10-31 19:45:00,
2013-10-31 15:50:00,62.6,58.7,29.88,NE,44,1.0,1.0,87,0.00,,,0.00,54,Wunderground v.1.15,2013-10-31 19:50:00,
2013-10-31 15:55:00,62.7,58.8,29.88,NE,44,1.0,1.0,87,0.00,,,0.00,62,Wunderground v.1.15,2013-10-31 19:55:00,
2013-10-31 16:00:00,62.7,58.8,29.88,NE,42,1.0,1.0,87,0.00,,,0.00,62,Wunderground v.1.15,2013-10-31 20:00:00,
2013-10-31 16:05:00,62.7,58.8,29.88,ENE,61,0.0,1.0,87,0.00,,,0.00,47,Wunderground v.1.15,2013-10-31 20:05:00,
2013-10-31 16:10:00,62.7,58.8,29.88,ENE,59,0.0,0.0,87,0.00,,,0.00,42,Wunderground v.1.15,2013-10-31 20:10:00,
2013-10-31 16:15:00,62.6,58.7,29.88,ENE,61,0.0,0.0,87,0.00,,,0.00,37,Wunderground v.1.15,2013-10-31 20:15:00,
2013-10-31 16:20:00,62.7,58.8,29.88,ENE,59,0.0,0.0,87,0.00,,,0.00,39,Wunderground v.1.15,2013-10-31 20:20:00,
2013-10-31 16:25:00,62.6,58.7,29.88,ENE,63,0.0,0.0,87,0.00,,,0.00,40,Wunderground v.1.15,2013-10-31 20:25:00,
2013-10-31 16:30:00,62.5,58.6,29.88,ENE,59,0.0,0.0,87,0.00,,,0.00,40,Wunderground v.1.15,2013-10-31 20:30:00,
2013-10-31 16:35:00,62.5,58.6,29.88,ENE,63,0.0,0.0,87,0.00,,,0.00,35,Wunderground v.1.15,2013-10-31 20:35:00,
2013-10-31 16:40:00,62.4,58.8,29.88,ENE,60,0.0,0.0,88,0.00,,,0.00,28,Wunderground v.1.15,2013-10-31 20:40:00,
2013-10-31 16:45:00,62.4,58.8,29.88,ENE,59,0.0,0.0,88,0.00,,,0.00,30,Wunderground v.1.15,2013-10-31 20:45:00,
2013-10-31 16:50:00,62.3,59.0,29.87,ENE,62,0.0,0.0,89,0.00,,,0.00,33,Wunderground v.1.15,2013-10-31 20:50:00,
2013-10-31 16:55:00,62.3,59.0,29.87,ENE,59,0.0,0.0,89,0.00,,,0.00,30,Wunderground v.1.15,2013-10-31 20:55:00,
2013-10-31 17:00:00,62.2,58.9,29.88,ENE,62,0.0,0.0,89,0.00,,,0.00,28,Wunderground v.1.15,2013-10-31 21:00:00,
2013-10-31 17:10:00,62.1,58.8,29.88,ENE,59,0.0,0.0,89,0.00,,,0.00,21,Wunderground v.1.15,2013-10-31 21:10:00,
2013-10-31 17:15:00,62.0,58.7,29.88,ENE,61,0.0,0.0,89,0.00,,,0.00,23,Wunderground v.1.15,2013-10-31 21:15:00,
2013-10-31 17:20:00,62.0,59.0,29.88,ENE,61,0.0,0.0,90,0.00,,,0.00,19,Wunderground v.1.15,2013-10-31 21:20:00,
2013-10-31 17:25:00,61.9,58.9,29.88,ENE,63,0.0,0.0,90,0.00,,,0.00,18,Wunderground v.1.15,2013-10-31 21:25:00,
2013-10-31 17:30:00,61.8,58.8,29.88,ENE,59,0.0,0.0,90,0.00,,,0.00,14,Wunderground v.1.15,2013-10-31 21:30:00,
2013-10-31 17:35:00,61.7,58.7,29.88,ENE,60,0.0,0.0,90,0.00,,,0.00,11,Wunderground v.1.15,2013-10-31 21:35:00,
2013-10-31 17:40:00,61.5,58.5,29.88,NW,313,1.0,2.0,90,0.00,,,0.00,11,Wunderground v.1.15,2013-10-31 21:40:00,
2013-10-31 17:45:00,61.4,58.7,29.88,SSW,200,1.0,2.0,91,0.00,,,0.00,11,Wunderground v.1.15,2013-10-31 21:45:00,
2013-10-31 17:50:00,61.3,58.7,29.89,SSW,212,3.0,5.0,91,0.00,,,0.00,7,Wunderground v.1.15,2013-10-31 21:50:00,
2013-10-31 17:55:00,61.3,58.7,29.89,WSW,248,5.0,6.0,91,0.00,,,0.00,5,Wunderground v.1.15,2013-10-31 21:55:00,
2013-10-31 18:00:00,61.6,56.7,29.89,WSW,252,8.0,8.0,84,0.00,,,0.00,0,Wunderground v.1.15,2013-10-31 22:00:00,
2013-10-31 18:05:00,62.8,56.5,29.89,WSW,256,12.0,12.0,80,0.00,,,0.00,0,Wunderground v.1.15,2013-10-31 22:05:00,
2013-10-31 18:10:00,63.8,57.5,29.89,WSW,258,12.0,12.0,80,0.00,,,0.00,0,Wunderground v.1.15,2013-10-31 22:10:00,
2013-10-31 18:15:00,64.1,57.5,29.90,WSW,244,10.0,12.0,79,0.00,,,0.00,0,Wunderground v.1.15,2013-10-31 22:15:00,
2013-10-31 18:20:00,64.1,57.1,29.90,West,262,7.0,7.0,78,0.00,,,0.00,0,Wunderground v.1.15,2013-10-31 22:20:00,
2013-10-31 18:25:00,64.2,57.5,29.91,West,263,6.0,7.0,79,0.00,,,0.00,0,Wunderground v.1.15,2013-10-31 22:25:00,
2013-10-31 18:30:00,64.1,57.5,29.91,SW,223,5.0,5.0,79,0.00,,,0.00,0,Wunderground v.1.15,2013-10-31 22:30:00,
2013-10-31 18:35:00,64.0,58.4,29.91,SW,217,5.0,5.0,82,0.00,,,0.00,0,Wunderground v.1.15,2013-10-31 22:35:00,
2013-10-31 18:40:00,63.7,58.1,29.91,SW,229,5.0,5.0,82,0.00,,,0.00,0,Wunderground v.1.15,2013-10-31 22:40:00,
2013-10-31 18:45:00,63.4,58.1,29.90,WSW,258,5.0,5.0,83,0.00,,,0.00,0,Wunderground v.1.15,2013-10-31 22:45:00,
2013-10-31 18:50:00,63.0,58.4,29.89,West,278,4.0,5.0,85,0.00,,,0.00,0,Wunderground v.1.15,2013-10-31 22:50:00,
2013-10-31 18:55:00,62.5,58.6,29.87,West,261,3.0,5.0,87,0.00,,,0.00,0,Wunderground v.1.15,2013-10-31 22:55:00,
2013-10-31 19:00:00,61.9,58.3,29.87,ESE,123,2.0,2.0,88,0.00,,,0.01,0,Wunderground v.1.15,2013-10-31 23:00:00,
2013-10-31 19:05:00,61.4,58.4,29.87,ESE,119,1.0,4.0,90,0.00,,,0.01,0,Wunderground v.1.15,2013-10-31 23:05:00,
2013-10-31 19:10:00,60.9,58.3,29.87,WNW,293,2.0,3.0,91,0.00,,,0.01,0,Wunderground v.1.15,2013-10-31 23:10:00,
2013-10-31 19:15:00,60.6,58.3,29.87,WNW,293,3.0,3.0,92,0.00,,,0.01,0,Wunderground v.1.15,2013-10-31 23:15:00,
2013-10-31 19:20:00,60.2,58.2,29.87,WNW,295,2.0,3.0,93,0.00,,,0.01,0,Wunderground v.1.15,2013-10-31 23:20:00,
2013-10-31 19:25:00,59.9,58.2,29.86,NW,306,2.0,3.0,94,0.00,,,0.01,0,Wunderground v.1.15,2013-10-31 23:25:00,
2013-10-31 19:30:00,59.6,58.2,29.86,NW,315,3.0,3.0,95,0.00,,,0.01,0,Wunderground v.1.15,2013-10-31 23:30:00,
2013-10-31 19:35:00,59.4,58.0,29.86,NW,315,2.0,3.0,95,0.00,,,0.01,0,Wunderground v.1.15,2013-10-31 23:35:00,
2013-10-31 19:40:00,59.2,57.8,29.86,NW,317,1.0,1.0,95,0.00,,,0.01,0,Wunderground v.1.15,2013-10-31 23:40:00,
2013-10-31 19:45:00,59.0,57.9,29.86,NW,315,0.0,1.0,96,0.00,,,0.01,0,Wunderground v.1.15,2013-10-31 23:45:00,
2013-10-31 19:50:00,58.8,57.7,29.86,NW,317,0.0,0.0,96,0.00,,,0.01,0,Wunderground v.1.15,2013-10-31 23:50:00,
2013-10-31 19:55:00,58.8,57.7,29.86,NW,316,0.0,0.0,96,0.00,,,0.01,0,Wunderground v.1.15,2013-10-31 23:55:00,
2013-10-31 20:00:00,58.6,57.5,29.86,NW,315,0.0,0.0,96,0.00,,,0.01,0,Wunderground v.1.15,2013-11-01 00:00:00,
2013-10-31 20:05:00,58.6,57.8,29.85,NW,315,0.0,0.0,97,0.00,,,0.01,0,Wunderground v.1.15,2013-11-01 00:05:00,
2013-10-31 20:10:00,58.5,57.7,29.85,NW,316,0.0,0.0,97,0.00,,,0.01,0,Wunderground v.1.15,2013-11-01 00:10:00,
2013-10-31 20:15:00,58.4,57.6,29.85,NW,316,0.0,0.0,97,0.00,,,0.01,0,Wunderground v.1.15,2013-11-01 00:15:00,
2013-10-31 20:20:00,58.3,57.5,29.84,NW,316,0.0,1.0,97,0.00,,,0.01,0,Wunderground v.1.15,2013-11-01 00:20:00,
2013-10-31 20:25:00,58.2,57.4,29.84,NW,316,1.0,3.0,97,0.00,,,0.01,0,Wunderground v.1.15,2013-11-01 00:25:00,
2013-10-31 20:30:00,58.1,57.3,29.84,NW,317,2.0,2.0,97,0.00,,,0.01,0,Wunderground v.1.15,2013-11-01 00:30:00,
2013-10-31 20:40:00,58.0,57.2,29.83,NW,315,0.0,0.0,97,0.00,,,0.01,0,Wunderground v.1.15,2013-11-01 00:40:00,
2013-10-31 20:45:00,58.0,57.2,29.84,NW,315,0.0,0.0,97,0.00,,,0.01,0,Wunderground v.1.15,2013-11-01 00:45:00,
2013-10-31 20:50:00,57.9,57.3,29.83,NW,317,0.0,0.0,98,0.00,,,0.01,0,Wunderground v.1.15,2013-11-01 00:50:00,
2013-10-31 20:55:00,57.9,57.3,29.83,NW,316,0.0,0.0,98,0.00,,,0.01,0,Wunderground v.1.15,2013-11-01 00:55:00,
2013-10-31 21:00:00,57.7,57.1,29.82,NW,317,0.0,0.0,98,0.00,,,0.01,0,Wunderground v.1.15,2013-11-01 01:00:00,
2013-10-31 21:05:00,57.7,57.1,29.82,NW,317,0.0,0.0,98,0.00,,,0.01,0,Wunderground v.1.15,2013-11-01 01:05:00,
2013-10-31 21:10:00,57.5,56.9,29.81,NW,315,0.0,2.0,98,0.00,,,0.01,0,Wunderground v.1.15,2013-11-01 01:10:00,
2013-10-31 21:15:00,57.4,56.8,29.81,NW,316,1.0,2.0,98,0.00,,,0.01,0,Wunderground v.1.15,2013-11-01 01:15:00,
2013-10-31 21:20:00,57.4,56.8,29.80,NW,317,2.0,2.0,98,0.00,,,0.01,0,Wunderground v.1.15,2013-11-01 01:20:00,
2013-10-31 21:25:00,57.4,56.8,29.80,NW,317,1.0,2.0,98,0.00,,,0.01,0,Wunderground v.1.15,2013-11-01 01:25:00,
2013-10-31 21:30:00,57.4,56.8,29.80,NW,314,0.0,0.0,98,0.00,,,0.01,0,Wunderground v.1.15,2013-11-01 01:30:00,
2013-10-31 21:35:00,57.3,56.7,29.80,NW,314,0.0,0.0,98,0.00,,,0.01,0,Wunderground v.1.15,2013-11-01 01:35:00,
2013-10-31 21:40:00,57.3,57.0,29.79,NW,313,0.0,0.0,99,0.00,,,0.01,0,Wunderground v.1.15,2013-11-01 01:40:00,
2013-10-31 21:45:00,57.3,57.0,29.79,NW,317,0.0,0.0,99,0.00,,,0.01,0,Wunderground v.1.15,2013-11-01 01:45:00,
2013-10-31 21:50:00,57.2,56.9,29.78,NW,313,0.0,0.0,99,0.00,,,0.01,0,Wunderground v.1.15,2013-11-01 01:50:00,
2013-10-31 21:55:00,57.2,56.9,29.78,NW,315,0.0,0.0,99,0.00,,,0.01,0,Wunderground v.1.15,2013-11-01 01:55:00,
2013-10-31 22:00:00,57.2,56.9,29.78,NW,317,0.0,0.0,99,0.00,,,0.01,0,Wunderground v.1.15,2013-11-01 02:00:00,
2013-10-31 22:05:00,57.1,56.8,29.78,North,360,0.0,0.0,99,0.00,,,0.01,0,Wunderground v.1.15,2013-11-01 02:05:00,
2013-10-31 22:10:00,57.1,56.8,29.79,NW,317,0.0,0.0,99,0.00,,,0.01,0,Wunderground v.1.15,2013-11-01 02:10:00,
2013-10-31 22:15:00,57.0,56.7,29.78,NW,317,0.0,0.0,99,0.00,,,0.01,0,Wunderground v.1.15,2013-11-01 02:15:00,
2013-10-31 22:20:00,57.0,56.7,29.78,NW,315,0.0,0.0,99,0.00,,,0.01,0,Wunderground v.1.15,2013-11-01 02:20:00,
2013-10-31 22:25:00,57.0,56.7,29.77,NW,316,0.0,0.0,99,0.00,,,0.01,0,Wunderground v.1.15,2013-11-01 02:25:00,
2013-10-31 22:30:00,57.0,56.7,29.76,NW,316,0.0,0.0,99,0.00,,,0.01,0,Wunderground v.1.15,2013-11-01 02:30:00,
2013-10-31 22:35:00,57.0,56.7,29.76,NW,315,0.0,0.0,99,0.00,,,0.01,0,Wunderground v.1.15,2013-11-01 02:35:00,
2013-10-31 22:40:00,57.0,56.7,29.75,NW,315,0.0,0.0,99,0.00,,,0.01,0,Wunderground v.1.15,2013-11-01 02:40:00,
2013-10-31 22:45:00,57.0,56.7,29.75,NW,317,0.0,0.0,99,0.00,,,0.01,0,Wunderground v.1.15,2013-11-01 02:45:00,
2013-10-31 22:50:00,56.9,56.6,29.75,NW,317,0.0,0.0,99,0.00,,,0.01,0,Wunderground v.1.15,2013-11-01 02:50:00,
2013-10-31 22:55:00,56.9,56.6,29.75,NW,316,0.0,0.0,99,0.00,,,0.01,0,Wunderground v.1.15,2013-11-01 02:55:00,
2013-10-31 23:00:00,56.8,56.5,29.74,NW,315,0.0,0.0,99,0.00,,,0.01,0,Wunderground v.1.15,2013-11-01 03:00:00,
2013-10-31 23:05:00,56.8,56.5,29.73,NW,317,0.0,0.0,99,0.00,,,0.01,0,Wunderground v.1.15,2013-11-01 03:05:00,
2013-10-31 23:10:00,56.8,56.5,29.73,NW,316,0.0,0.0,99,0.00,,,0.01,0,Wunderground v.1.15,2013-11-01 03:10:00,
2013-10-31 23:15:00,56.7,56.4,29.72,NW,314,0.0,0.0,99,0.00,,,0.01,0,Wunderground v.1.15,2013-11-01 03:15:00,
2013-10-31 23:20:00,56.6,56.3,29.72,NW,316,0.0,0.0,99,0.00,,,0.01,0,Wunderground v.1.15,2013-11-01 03:20:00,
2013-10-31 23:25:00,56.6,56.3,29.73,NW,315,0.0,0.0,99,0.00,,,0.01,0,Wunderground v.1.15,2013-11-01 03:25:00,
2013-10-31 23:30:00,56.5,56.2,29.72,NW,316,0.0,0.0,99,0.00,,,0.01,0,Wunderground v.1.15,2013-11-01 03:30:00,
2013-10-31 23:35:00,56.5,56.2,29.71,NW,315,0.0,0.0,99,0.00,,,0.01,0,Wunderground v.1.15,2013-11-01 03:35:00,
2013-10-31 23:40:00,56.5,56.5,29.71,NW,315,0.0,0.0,100,0.00,,,0.01,0,Wunderground v.1.15,2013-11-01 03:40:00,
2013-10-31 23:45:00,56.5,56.5,29.70,NW,314,0.0,0.0,100,0.00,,,0.01,0,Wunderground v.1.15,2013-11-01 03:45:00,
2013-10-31 23:50:00,56.4,56.4,29.70,NW,317,0.0,0.0,100,0.00,,,0.01,0,Wunderground v.1.15,2013-11-01 03:50:00,
2013-10-31 23:55:00,56.5,56.5,29.69,NW,315,0.0,0.0,100,0.00,,,0.01,0,Wunderground v.1.15,2013-11-01 03:55:00,